Погода в Чендеке

Россия / Республика Алтай     50°15′55″N   85°57′30″E
темп.,
°C
ветер,
м/с
пор.,
м/с
влажн.,
%
обл.,
%
осадки,
мм/ч
давл.,
гПа
погр.,
м
12 мая, ср
ср1201:00+4зсз1292100 1.0 1014356
04:00+3зсз229392 0.4 1014255
07:00+4з118591 0.4 1014221
10:00+6з226563 0.2 10121168
13:00+8сз235498 0.9 10111399
16:00+5ююв3379100 2.5 1014602
19:00+3ю119699 5.6 1016384
22:00+3юз119799 0.6 1017275
13 мая, чт
чт1301:00+3зюз119791 1.2 1018188
04:00+3з119194 0.3 1018174
07:00+3зюз119590 0.5 1018273
10:00+5ююз118182 0.3 1017632
13:00+8юв116265 0.8 10151255
16:00+10вюв125349 0.6 10131417
19:00+9з225590 1.3 10121302
22:00+5зсз1181100 0.8 101412
14 мая, пт
пт1401:00+4в1186100 1.2 101419
04:00+3ссв0088100 0.1 101310
07:00+4з1190100 0.2 1014233
10:00+3юз2297100 1.9 1015353
13:00+3зюз2297100 5.6 1018318
16:00+3з1297100 2.4 1019383
19:00+3зсз139572 3.4 1021321
22:00+1ссв119312 0.1 102531
15 мая, сб
сб1501:000всв128934 0.1 102635
04:00−1св228940 0.0 102748
07:00+1ссв118243 0.0 1027116
10:00+6ю126639 0.0 1025871
13:00+10ююз22515 0.0 10221293
16:00+12юз22445 0.0 10201600
19:00+11зюз11515 0.0 1021894
22:00+6св22672 0.0 102323
16 мая, вс
вс1601:00+5всв11685 0.0 102211
04:00+3всв117245 0.0 102210
07:00+5всв117023 0.0 102240
10:00+10зюз115699 0.0 1019492
13:00+14з22415 0.0 10171172
16:00+16зюз12366 0.0 10151605
19:00+15юз123936 0.1 10141767
22:00+10сз11697 0.1 101716